����������;��������(kVARh)
2019-01-07 00:00;0
2019-01-07 00:15;0
2019-01-07 00:30;0
2019-01-07 00:45;0
2019-01-07 01:00;0
2019-01-07 01:15;0
2019-01-07 01:30;0
2019-01-07 01:45;0
2019-01-07 02:00;0
2019-01-07 02:15;0
2019-01-07 02:30;0
2019-01-07 02:45;0,15
2019-01-07 03:00;0,05
2019-01-07 03:15;0,2
2019-01-07 03:30;5,55
2019-01-07 03:45;5,6
2019-01-07 04:00;6,2
2019-01-07 04:15;6,15
2019-01-07 04:30;6,1
2019-01-07 04:45;5,35
2019-01-07 05:00;6,15
2019-01-07 05:15;4,9
2019-01-07 05:30;18,75
2019-01-07 05:45;23,3
2019-01-07 06:00;22,55
2019-01-07 06:15;19,6
2019-01-07 06:30;18,5
2019-01-07 06:45;16,65
2019-01-07 07:00;16,8
2019-01-07 07:15;16,75
2019-01-07 07:30;43,3
2019-01-07 07:45;48,7
2019-01-07 08:00;29,3
2019-01-07 08:15;25,55
2019-01-07 08:30;29,1
2019-01-07 08:45;31,8
2019-01-07 09:00;38,75
2019-01-07 09:15;38,2
2019-01-07 09:30;39,8
2019-01-07 09:45;41,35
2019-01-07 10:00;42,85
2019-01-07 10:15;45,55
2019-01-07 10:30;47,1
2019-01-07 10:45;49
2019-01-07 11:00;53
2019-01-07 11:15;87,9
2019-01-07 11:30;62,85
2019-01-07 11:45;57,3
2019-01-07 12:00;59,4
2019-01-07 12:15;62
2019-01-07 12:30;60,65
2019-01-07 12:45;57,55
2019-01-07 13:00;61,6
2019-01-07 13:15;66,6
2019-01-07 13:30;66,7
2019-01-07 13:45;60,45
2019-01-07 14:00;59,5
2019-01-07 14:15;57,8
2019-01-07 14:30;82,7
2019-01-07 14:45;69,05
2019-01-07 15:00;62,9
2019-01-07 15:15;65,7
2019-01-07 15:30;48,4
2019-01-07 15:45;44,45
2019-01-07 16:00;42,95
2019-01-07 16:15;40,9
2019-01-07 16:30;37,8
2019-01-07 16:45;36,3
2019-01-07 17:00;35,9
2019-01-07 17:15;36,05
2019-01-07 17:30;33,65
2019-01-07 17:45;31,55
2019-01-07 18:00;30,25
2019-01-07 18:15;30,25
2019-01-07 18:30;32,45
2019-01-07 18:45;30,15
2019-01-07 19:00;29,15
2019-01-07 19:15;17,85
2019-01-07 19:30;20,1
2019-01-07 19:45;18,7
2019-01-07 20:00;15,95
2019-01-07 20:15;15,4
2019-01-07 20:30;10,1
2019-01-07 20:45;6,95
2019-01-07 21:00;6,55
2019-01-07 21:15;5,6
2019-01-07 21:30;6,8
2019-01-07 21:45;7,1
2019-01-07 22:00;3,9
2019-01-07 22:15;1,4
2019-01-07 22:30;1
2019-01-07 22:45;0,8
2019-01-07 23:00;2,95
2019-01-07 23:15;2,3
2019-01-07 23:30;2,75
2019-01-07 23:45;3,3
2019-01-08 00:00;0
2019-01-08 00:15;0
2019-01-08 00:30;2,8
2019-01-08 00:45;1,55
2019-01-08 01:00;2,7
2019-01-08 01:15;3,8
2019-01-08 01:30;4
2019-01-08 01:45;4,65
2019-01-08 02:00;4,85
2019-01-08 02:15;5,55
2019-01-08 02:30;6,3
2019-01-08 02:45;6,5
2019-01-08 03:00;6,7
2019-01-08 03:15;8,15
2019-01-08 03:30;6,8
2019-01-08 03:45;6,2
2019-01-08 04:00;14,4
2019-01-08 04:15;18,15
2019-01-08 04:30;18,1
2019-01-08 04:45;19,05
2019-01-08 05:00;19,65
2019-01-08 05:15;19,2
2019-01-08 05:30;17,7
2019-01-08 05:45;21,8
2019-01-08 06:00;34,45
2019-01-08 06:15;33
2019-01-08 06:30;29,9
2019-01-08 06:45;31,7
2019-01-08 07:00;29,65
2019-01-08 07:15;32,7
2019-01-08 07:30;42,85
2019-01-08 07:45;43,35
2019-01-08 08:00;65,15
2019-01-08 08:15;71,9
2019-01-08 08:30;49,25
2019-01-08 08:45;51,7
2019-01-08 09:00;59,75
2019-01-08 09:15;82,85
2019-01-08 09:30;69,6
2019-01-08 09:45;73
2019-01-08 10:00;113,6
2019-01-08 10:15;119,75
2019-01-08 10:30;98,45
2019-01-08 10:45;105,35
2019-01-08 11:00;119,8
2019-01-08 11:15;102,35
2019-01-08 11:30;105,25
2019-01-08 11:45;107,05
2019-01-08 12:00;94,4
2019-01-08 12:15;110,65
2019-01-08 12:30;107,7
2019-01-08 12:45;115,45
2019-01-08 13:00;102,85
2019-01-08 13:15;118,3
2019-01-08 13:30;100,5
2019-01-08 13:45;99,1
2019-01-08 14:00;99,6
2019-01-08 14:15;95,7
2019-01-08 14:30;132,65
2019-01-08 14:45;106,15
2019-01-08 15:00;99
2019-01-08 15:15;97,45
2019-01-08 15:30;78,75
2019-01-08 15:45;94,35
2019-01-08 16:00;82,8
2019-01-08 16:15;75,45
2019-01-08 16:30;68,5
2019-01-08 16:45;65,9
2019-01-08 17:00;66,35
2019-01-08 17:15;56,15
2019-01-08 17:30;47,55
2019-01-08 17:45;41,05
2019-01-08 18:00;37,9
2019-01-08 18:15;33,85
2019-01-08 18:30;32,65
2019-01-08 18:45;38,5
2019-01-08 19:00;38,65
2019-01-08 19:15;40
2019-01-08 19:30;38,85
2019-01-08 19:45;37,5
2019-01-08 20:00;35,05
2019-01-08 20:15;36
2019-01-08 20:30;33,15
2019-01-08 20:45;30,25
2019-01-08 21:00;27,6
2019-01-08 21:15;27,55
2019-01-08 21:30;27,55
2019-01-08 21:45;22,15
2019-01-08 22:00;20,85
2019-01-08 22:15;19,65
2019-01-08 22:30;19,25
2019-01-08 22:45;20,4
2019-01-08 23:00;25,55
2019-01-08 23:15;17,35
2019-01-08 23:30;12,4
2019-01-08 23:45;11,9
2019-01-09 00:00;7,25
2019-01-09 00:15;6,45
2019-01-09 00:30;4,8
2019-01-09 00:45;8,2
2019-01-09 01:00;16,45
2019-01-09 01:15;17,15
2019-01-09 01:30;17,3
2019-01-09 01:45;13,3
2019-01-09 02:00;13,2
2019-01-09 02:15;13,1
2019-01-09 02:30;14,4
2019-01-09 02:45;13,7
2019-01-09 03:00;14,8
2019-01-09 03:15;14,65
2019-01-09 03:30;12,85
2019-01-09 03:45;11
2019-01-09 04:00;10
2019-01-09 04:15;11,2
2019-01-09 04:30;12,45
2019-01-09 04:45;13,9
2019-01-09 05:00;13,9
2019-01-09 05:15;10,9
2019-01-09 05:30;10,15
2019-01-09 05:45;11,05
2019-01-09 06:00;12,4
2019-01-09 06:15;23,05
2019-01-09 06:30;26,35
2019-01-09 06:45;25
2019-01-09 07:00;25,65
2019-01-09 07:15;30,15
2019-01-09 07:30;36,5
2019-01-09 07:45;37,55
2019-01-09 08:00;41,7
2019-01-09 08:15;47,45
2019-01-09 08:30;45,75
2019-01-09 08:45;60,9
2019-01-09 09:00;87,05
2019-01-09 09:15;59,7
2019-01-09 09:30;62,9
2019-01-09 09:45;68,45
2019-01-09 10:00;69,8
2019-01-09 10:15;78
2019-01-09 10:30;72,75
2019-01-09 10:45;81,8
2019-01-09 11:00;77,25
2019-01-09 11:15;87,5
2019-01-09 11:30;79,7
2019-01-09 11:45;74,05
2019-01-09 12:00;74,5
2019-01-09 12:15;74,55
2019-01-09 12:30;75
2019-01-09 12:45;72,55
2019-01-09 13:00;74,15
2019-01-09 13:15;74,7
2019-01-09 13:30;79,85
2019-01-09 13:45;98,85
2019-01-09 14:00;79,3
2019-01-09 14:15;81,65
2019-01-09 14:30;75,9
2019-01-09 14:45;67,75
2019-01-09 15:00;64,4
2019-01-09 15:15;59,1
2019-01-09 15:30;56,2
2019-01-09 15:45;51
2019-01-09 16:00;48,4
2019-01-09 16:15;52,5
2019-01-09 16:30;47,2
2019-01-09 16:45;44,8
2019-01-09 17:00;42,25
2019-01-09 17:15;36,7
2019-01-09 17:30;32,25
2019-01-09 17:45;30,75
2019-01-09 18:00;31,6
2019-01-09 18:15;34,25
2019-01-09 18:30;32,85
2019-01-09 18:45;35,4
2019-01-09 19:00;36,8
2019-01-09 19:15;34,85
2019-01-09 19:30;31,6
2019-01-09 19:45;31,6
2019-01-09 20:00;21,45
2019-01-09 20:15;15,5
2019-01-09 20:30;14,85
2019-01-09 20:45;14,4
2019-01-09 21:00;14,4
2019-01-09 21:15;14,6
2019-01-09 21:30;16,1
2019-01-09 21:45;10,3
2019-01-09 22:00;2,15
2019-01-09 22:15;1,45
2019-01-09 22:30;1,3
2019-01-09 22:45;1,55
2019-01-09 23:00;1,95
2019-01-09 23:15;0,5
2019-01-09 23:30;2,1
2019-01-09 23:45;3,25
2019-01-10 00:00;1,2
2019-01-10 00:15;1,4
2019-01-10 00:30;1,65
2019-01-10 00:45;1,7
2019-01-10 01:00;1,2
2019-01-10 01:15;1,9
2019-01-10 01:30;7,6
2019-01-10 01:45;12,8
2019-01-10 02:00;15,5
2019-01-10 02:15;16,25
2019-01-10 02:30;16,25
2019-01-10 02:45;16,4
2019-01-10 03:00;18,1
2019-01-10 03:15;17,3
2019-01-10 03:30;16,3
2019-01-10 03:45;11,45
2019-01-10 04:00;7,55
2019-01-10 04:15;7,8
2019-01-10 04:30;7,55
2019-01-10 04:45;11,4
2019-01-10 05:00;11,3
2019-01-10 05:15;10,2
2019-01-10 05:30;9,55
2019-01-10 05:45;9
2019-01-10 06:00;7,65
2019-01-10 06:15;6,5
2019-01-10 06:30;17,15
2019-01-10 06:45;32,7
2019-01-10 07:00;37,2
2019-01-10 07:15;41,45
2019-01-10 07:30;65,9
2019-01-10 07:45;52,25
2019-01-10 08:00;48,65
2019-01-10 08:15;42,85
2019-01-10 08:30;52,05
2019-01-10 08:45;59
2019-01-10 09:00;61
2019-01-10 09:15;63,5
2019-01-10 09:30;63,7
2019-01-10 09:45;63,05
2019-01-10 10:00;69,8
2019-01-10 10:15;69,4
2019-01-10 10:30;74,85
2019-01-10 10:45;79,85
2019-01-10 11:00;75,45
2019-01-10 11:15;89,65
2019-01-10 11:30;84
2019-01-10 11:45;77,7
2019-01-10 12:00;75,95
2019-01-10 12:15;78,05
2019-01-10 12:30;80
2019-01-10 12:45;81,8
2019-01-10 13:00;82,35
2019-01-10 13:15;80,15
2019-01-10 13:30;87,8
2019-01-10 13:45;83,45
2019-01-10 14:00;81,75
2019-01-10 14:15;80,05
2019-01-10 14:30;80
2019-01-10 14:45;79,95
2019-01-10 15:00;79,7
2019-01-10 15:15;84,05
2019-01-10 15:30;71,95
2019-01-10 15:45;68,9
2019-01-10 16:00;66,75
2019-01-10 16:15;65,55
2019-01-10 16:30;66,75
2019-01-10 16:45;57,45
2019-01-10 17:00;51,35
2019-01-10 17:15;45,95
2019-01-10 17:30;43
2019-01-10 17:45;43,5
2019-01-10 18:00;41,6
2019-01-10 18:15;37,15
2019-01-10 18:30;33,8
2019-01-10 18:45;27,65
2019-01-10 19:00;25,95
2019-01-10 19:15;26
2019-01-10 19:30;25,65
2019-01-10 19:45;24,95
2019-01-10 20:00;22
2019-01-10 20:15;22,85
2019-01-10 20:30;11,6
2019-01-10 20:45;11,25
2019-01-10 21:00;9,65
2019-01-10 21:15;11,2
2019-01-10 21:30;11,7
2019-01-10 21:45;9,15
2019-01-10 22:00;6,3
2019-01-10 22:15;8
2019-01-10 22:30;10,2
2019-01-10 22:45;12
2019-01-10 23:00;15,35
2019-01-10 23:15;15,75
2019-01-10 23:30;16,25
2019-01-10 23:45;14
2019-01-11 00:00;5,5
2019-01-11 00:15;1,05
2019-01-11 00:30;0,25
2019-01-11 00:45;0,4
2019-01-11 01:00;0
2019-01-11 01:15;0
2019-01-11 01:30;0
2019-01-11 01:45;0
2019-01-11 02:00;8,95
2019-01-11 02:15;9,3
2019-01-11 02:30;9,85
2019-01-11 02:45;9,8
2019-01-11 03:00;10,1
2019-01-11 03:15;10,25
2019-01-11 03:30;9,35
2019-01-11 03:45;15,2
2019-01-11 04:00;26,05
2019-01-11 04:15;25,35
2019-01-11 04:30;27,1
2019-01-11 04:45;25,9
2019-01-11 05:00;21,95
2019-01-11 05:15;19,65
2019-01-11 05:30;17
2019-01-11 05:45;17,2
2019-01-11 06:00;18,15
2019-01-11 06:15;15,7
2019-01-11 06:30;12,35
2019-01-11 06:45;13,5
2019-01-11 07:00;13,75
2019-01-11 07:15;15,45
2019-01-11 07:30;54,4
2019-01-11 07:45;45,05
2019-01-11 08:00;40,95
2019-01-11 08:15;40
2019-01-11 08:30;46,9
2019-01-11 08:45;52,65
2019-01-11 09:00;47,1
2019-01-11 09:15;50,65
2019-01-11 09:30;56
2019-01-11 09:45;55,05
2019-01-11 10:00;54,1
2019-01-11 10:15;55,15
2019-01-11 10:30;55,65
2019-01-11 10:45;65,95
2019-01-11 11:00;66,45
2019-01-11 11:15;69,55
2019-01-11 11:30;59,85
2019-01-11 11:45;68,05
2019-01-11 12:00;66,35
2019-01-11 12:15;68,75
2019-01-11 12:30;60,25
2019-01-11 12:45;66,15
2019-01-11 13:00;65,05
2019-01-11 13:15;64,35
2019-01-11 13:30;56,15
2019-01-11 13:45;53,35
2019-01-11 14:00;55,1
2019-01-11 14:15;55,1
2019-01-11 14:30;52,85
2019-01-11 14:45;52,25
2019-01-11 15:00;56,35
2019-01-11 15:15;49,6
2019-01-11 15:30;47,6
2019-01-11 15:45;45,95
2019-01-11 16:00;42,35
2019-01-11 16:15;36,75
2019-01-11 16:30;38,25
2019-01-11 16:45;33,1
2019-01-11 17:00;28,45
2019-01-11 17:15;27,15
2019-01-11 17:30;24,5
2019-01-11 17:45;26,05
2019-01-11 18:00;26,5
2019-01-11 18:15;26,3
2019-01-11 18:30;22,65
2019-01-11 18:45;22,8
2019-01-11 19:00;22,75
2019-01-11 19:15;20,9
2019-01-11 19:30;16
2019-01-11 19:45;13,5
2019-01-11 20:00;11,8
2019-01-11 20:15;9,9
2019-01-11 20:30;7,05
2019-01-11 20:45;7,9
2019-01-11 21:00;9,9
2019-01-11 21:15;9,75
2019-01-11 21:30;11,3
2019-01-11 21:45;3,7
2019-01-11 22:00;1,4
2019-01-11 22:15;1,2
2019-01-11 22:30;4,2
2019-01-11 22:45;6,1
2019-01-11 23:00;7,95
2019-01-11 23:15;7,85
2019-01-11 23:30;11,35
2019-01-11 23:45;3,55
2019-01-12 00:00;0,35
2019-01-12 00:15;0,15
2019-01-12 00:30;2
2019-01-12 00:45;1,9
2019-01-12 01:00;1,9
2019-01-12 01:15;3,75
2019-01-12 01:30;5,05
2019-01-12 01:45;2,75
2019-01-12 02:00;4,6
2019-01-12 02:15;4,8
2019-01-12 02:30;6,1
2019-01-12 02:45;5
2019-01-12 03:00;4,65
2019-01-12 03:15;7,05
2019-01-12 03:30;6,45
2019-01-12 03:45;5,4
2019-01-12 04:00;6,1
2019-01-12 04:15;6,9
2019-01-12 04:30;7,1
2019-01-12 04:45;6,6
2019-01-12 05:00;7,5
2019-01-12 05:15;8,15
2019-01-12 05:30;6,95
2019-01-12 05:45;5,5
2019-01-12 06:00;8
2019-01-12 06:15;6,05
2019-01-12 06:30;3,55
2019-01-12 06:45;2,9
2019-01-12 07:00;3,9
2019-01-12 07:15;2,05
2019-01-12 07:30;2,3
2019-01-12 07:45;4,55
2019-01-12 08:00;3,2
2019-01-12 08:15;1,3
2019-01-12 08:30;1,65
2019-01-12 08:45;1,4
2019-01-12 09:00;3,55
2019-01-12 09:15;2,3
2019-01-12 09:30;0,4
2019-01-12 09:45;0,25
2019-01-12 10:00;0,95
2019-01-12 10:15;4
2019-01-12 10:30;3,2
2019-01-12 10:45;3,9
2019-01-12 11:00;4,25
2019-01-12 11:15;5,05
2019-01-12 11:30;6,8
2019-01-12 11:45;9
2019-01-12 12:00;5,2
2019-01-12 12:15;4,25
2019-01-12 12:30;4,25
2019-01-12 12:45;5,9
2019-01-12 13:00;11,1
2019-01-12 13:15;10,05
2019-01-12 13:30;4,9
2019-01-12 13:45;6,55
2019-01-12 14:00;16,15
2019-01-12 14:15;16,6
2019-01-12 14:30;13,85
2019-01-12 14:45;9,55
2019-01-12 15:00;9,7
2019-01-12 15:15;11,1
2019-01-12 15:30;10,15
2019-01-12 15:45;9,6
2019-01-12 16:00;10,95
2019-01-12 16:15;11,4
2019-01-12 16:30;10,95
2019-01-12 16:45;11
2019-01-12 17:00;11,75
2019-01-12 17:15;11,75
2019-01-12 17:30;11,15
2019-01-12 17:45;9,2
2019-01-12 18:00;7,75
2019-01-12 18:15;11,3
2019-01-12 18:30;12,45
2019-01-12 18:45;14,45
2019-01-12 19:00;15,85
2019-01-12 19:15;14,95
2019-01-12 19:30;14,1
2019-01-12 19:45;14,3
2019-01-12 20:00;12
2019-01-12 20:15;12,15
2019-01-12 20:30;9,85
2019-01-12 20:45;7,7
2019-01-12 21:00;7,3
2019-01-12 21:15;6,7
2019-01-12 21:30;7,4
2019-01-12 21:45;6,95
2019-01-12 22:00;6,05
2019-01-12 22:15;6,45
2019-01-12 22:30;8,85
2019-01-12 22:45;8,9
2019-01-12 23:00;8,75
2019-01-12 23:15;0
2019-01-12 23:30;0
2019-01-12 23:45;0
2019-01-13 00:00;0
2019-01-13 00:15;0
2019-01-13 00:30;0
2019-01-13 00:45;0
2019-01-13 01:00;0
2019-01-13 01:15;0
2019-01-13 01:30;0
2019-01-13 01:45;0,15
2019-01-13 02:00;0
2019-01-13 02:15;0
2019-01-13 02:30;0
2019-01-13 02:45;0,3
2019-01-13 03:00;0,05
2019-01-13 03:15;0
2019-01-13 03:30;0
2019-01-13 03:45;0
2019-01-13 04:00;0
2019-01-13 04:15;0
2019-01-13 04:30;0
2019-01-13 04:45;0
2019-01-13 05:00;0,05
2019-01-13 05:15;0
2019-01-13 05:30;3,9
2019-01-13 05:45;4,9
2019-01-13 06:00;4,25
2019-01-13 06:15;3,95
2019-01-13 06:30;3,35
2019-01-13 06:45;3,45
2019-01-13 07:00;4,25
2019-01-13 07:15;5,65
2019-01-13 07:30;6,9
2019-01-13 07:45;6,4
2019-01-13 08:00;10,35
2019-01-13 08:15;10,8
2019-01-13 08:30;9,6
2019-01-13 08:45;9,4
2019-01-13 09:00;9,5
2019-01-13 09:15;6,85
2019-01-13 09:30;5,7
2019-01-13 09:45;5,45
2019-01-13 10:00;3,75
2019-01-13 10:15;3,75
2019-01-13 10:30;3,75
2019-01-13 10:45;4,45
2019-01-13 11:00;4,15
2019-01-13 11:15;8,05
2019-01-13 11:30;12,3
2019-01-13 11:45;13,55
2019-01-13 12:00;15,55
2019-01-13 12:15;14,75
2019-01-13 12:30;14,35
2019-01-13 12:45;16,3
2019-01-13 13:00;15,65
2019-01-13 13:15;14,95
2019-01-13 13:30;15,2
2019-01-13 13:45;14,7
2019-01-13 14:00;14,8
2019-01-13 14:15;14,05
2019-01-13 14:30;16,1
2019-01-13 14:45;18,2
2019-01-13 15:00;19,2
2019-01-13 15:15;19,45
2019-01-13 15:30;18,55
2019-01-13 15:45;20,2
2019-01-13 16:00;16,6
2019-01-13 16:15;17,55
2019-01-13 16:30;18,25
2019-01-13 16:45;16,5
2019-01-13 17:00;16,3
2019-01-13 17:15;13,8
2019-01-13 17:30;12,95
2019-01-13 17:45;13,35
2019-01-13 18:00;12,9
2019-01-13 18:15;14,15
2019-01-13 18:30;15,15
2019-01-13 18:45;15,55
2019-01-13 19:00;15
2019-01-13 19:15;16,05
2019-01-13 19:30;15,25
2019-01-13 19:45;15,95
2019-01-13 20:00;15,1
2019-01-13 20:15;14,75
2019-01-13 20:30;16,6
2019-01-13 20:45;17,25
2019-01-13 21:00;17,7
2019-01-13 21:15;18,2
2019-01-13 21:30;13,35
2019-01-13 21:45;5,95
2019-01-13 22:00;4,9
2019-01-13 22:15;4,45
2019-01-13 22:30;4,2
2019-01-13 22:45;5,05
2019-01-13 23:00;6,25
2019-01-13 23:15;0,2
2019-01-13 23:30;0,75
2019-01-13 23:45;0,9

